Time,TemperatureF,DewpointF,PressureIn,WindDirection,WindDirectionDegrees,WindSpeedMPH,WindSpeedGustMPH,Humidity,HourlyPrecipIn,Conditions,Clouds,dailyrainin,SoftwareType,DateUTC
2013-04-17 00:00:00,45.4,37.9,30.27,East,97,3.0,4.0,75,0.00,,,0.59,Wunderground v.1.15,2013-04-17 04:00:00,
2013-04-17 00:05:00,45.3,38.2,30.28,East,91,4.0,5.0,76,0.00,,,0.00,Wunderground v.1.15,2013-04-17 04:05:00,
2013-04-17 00:10:00,45.3,38.5,30.28,East,91,4.0,5.0,77,0.00,,,0.00,Wunderground v.1.15,2013-04-17 04:10:00,
2013-04-17 00:20:00,45.2,38.4,30.27,East,96,4.0,4.0,77,0.00,,,0.00,Wunderground v.1.15,2013-04-17 04:20:00,
2013-04-17 00:25:00,45.1,37.6,30.28,East,91,6.0,9.0,75,0.00,,,0.00,Wunderground v.1.15,2013-04-17 04:25:00,
2013-04-17 00:30:00,45.0,37.6,30.28,East,97,7.0,7.0,75,0.00,,,0.00,Wunderground v.1.15,2013-04-17 04:30:00,
2013-04-17 00:35:00,45.0,37.6,30.28,East,81,5.0,7.0,75,0.00,,,0.00,Wunderground v.1.15,2013-04-17 04:35:00,
2013-04-17 00:40:00,44.9,37.8,30.29,East,91,4.0,6.0,76,0.00,,,0.00,Wunderground v.1.15,2013-04-17 04:40:00,
2013-04-17 00:45:00,44.9,38.1,30.28,ESE,105,4.0,6.0,77,0.00,,,0.00,Wunderground v.1.15,2013-04-17 04:45:00,
2013-04-17 00:55:00,44.9,37.8,30.29,ESE,120,5.0,5.0,76,0.00,,,0.00,Wunderground v.1.15,2013-04-17 04:55:00,
2013-04-17 01:05:00,44.8,37.7,30.30,East,83,8.0,9.0,76,0.00,,,0.00,Wunderground v.1.15,2013-04-17 05:05:00,
2013-04-17 01:10:00,44.8,38.0,30.30,East,91,8.0,8.0,77,0.00,,,0.00,Wunderground v.1.15,2013-04-17 05:10:00,
2013-04-17 01:15:00,44.7,37.9,30.29,East,91,7.0,8.0,77,0.00,,,0.00,Wunderground v.1.15,2013-04-17 05:15:00,
2013-04-17 01:20:00,44.7,38.3,30.30,East,92,6.0,7.0,78,0.00,,,0.00,Wunderground v.1.15,2013-04-17 05:20:00,
2013-04-17 01:30:00,44.6,38.2,30.29,East,96,5.0,6.0,78,0.00,,,0.00,Wunderground v.1.15,2013-04-17 05:30:00,
2013-04-17 01:35:00,44.5,38.4,30.29,East,97,4.0,6.0,79,0.00,,,0.00,Wunderground v.1.15,2013-04-17 05:35:00,
2013-04-17 01:40:00,44.5,38.7,30.29,East,96,5.0,5.0,80,0.00,,,0.00,Wunderground v.1.15,2013-04-17 05:40:00,
2013-04-17 01:45:00,44.5,38.4,30.29,ESE,102,4.0,5.0,79,0.00,,,0.00,Wunderground v.1.15,2013-04-17 05:45:00,
2013-04-17 01:55:00,44.4,38.6,30.28,ESE,108,5.0,6.0,80,0.00,,,0.00,Wunderground v.1.15,2013-04-17 05:55:00,
2013-04-17 02:05:00,44.4,38.3,30.28,ESE,121,5.0,5.0,79,0.00,,,0.00,Wunderground v.1.15,2013-04-17 06:05:00,
2013-04-17 02:10:00,44.4,38.3,30.28,East,91,6.0,6.0,79,0.00,,,0.00,Wunderground v.1.15,2013-04-17 06:10:00,
2013-04-17 02:15:00,44.4,38.0,30.29,ESE,105,6.0,6.0,78,0.00,,,0.00,Wunderground v.1.15,2013-04-17 06:15:00,
2013-04-17 02:20:00,44.4,38.3,30.29,East,98,6.0,6.0,79,0.00,,,0.00,Wunderground v.1.15,2013-04-17 06:20:00,
2013-04-17 02:25:00,44.4,38.0,30.30,East,89,6.0,8.0,78,0.00,,,0.00,Wunderground v.1.15,2013-04-17 06:25:00,
2013-04-17 02:35:00,44.5,38.1,30.30,East,91,6.0,7.0,78,0.00,,,0.00,Wunderground v.1.15,2013-04-17 06:35:00,
2013-04-17 02:40:00,44.5,38.4,30.30,East,97,5.0,5.0,79,0.00,,,0.00,Wunderground v.1.15,2013-04-17 06:40:00,
2013-04-17 02:45:00,44.5,38.4,30.30,East,97,4.0,5.0,79,0.00,,,0.00,Wunderground v.1.15,2013-04-17 06:45:00,
2013-04-17 02:50:00,44.5,38.1,30.30,East,97,3.0,5.0,78,0.00,,,0.00,Wunderground v.1.15,2013-04-17 06:50:00,
2013-04-17 03:00:00,44.6,37.8,30.30,ESE,102,4.0,6.0,77,0.00,,,0.00,Wunderground v.1.15,2013-04-17 07:00:00,
2013-04-17 03:10:00,44.6,37.8,30.30,East,98,5.0,5.0,77,0.00,,,0.00,Wunderground v.1.15,2013-04-17 07:10:00,
2013-04-17 03:15:00,44.6,37.8,30.30,ESE,102,5.0,5.0,77,0.00,,,0.00,Wunderground v.1.15,2013-04-17 07:15:00,
2013-04-17 03:20:00,44.6,38.5,30.30,ESE,110,5.0,5.0,79,0.00,,,0.00,Wunderground v.1.15,2013-04-17 07:20:00,
2013-04-17 03:25:00,44.5,38.4,30.30,ESE,115,5.0,8.0,79,0.00,,,0.00,Wunderground v.1.15,2013-04-17 07:25:00,
2013-04-17 03:35:00,44.5,38.4,30.29,East,97,5.0,10.0,79,0.00,,,0.00,Wunderground v.1.15,2013-04-17 07:35:00,
2013-04-17 03:40:00,44.5,38.4,30.30,East,97,5.0,5.0,79,0.00,,,0.00,Wunderground v.1.15,2013-04-17 07:40:00,
2013-04-17 03:45:00,44.5,38.7,30.30,East,98,5.0,10.0,80,0.00,,,0.00,Wunderground v.1.15,2013-04-17 07:45:00,
2013-04-17 03:50:00,44.4,38.6,30.30,East,98,5.0,10.0,80,0.00,,,0.00,Wunderground v.1.15,2013-04-17 07:50:00,
2013-04-17 04:00:00,44.5,38.4,30.30,ESE,118,5.0,10.0,79,0.00,,,0.00,Wunderground v.1.15,2013-04-17 08:00:00,
2013-04-17 04:05:00,44.5,38.7,30.29,ESE,117,5.0,10.0,80,0.00,,,0.00,Wunderground v.1.15,2013-04-17 08:05:00,
2013-04-17 04:10:00,44.5,38.7,30.30,ESE,106,5.0,10.0,80,0.00,,,0.00,Wunderground v.1.15,2013-04-17 08:10:00,
2013-04-17 04:20:00,44.5,38.7,30.30,ESE,122,6.0,10.0,80,0.00,,,0.00,Wunderground v.1.15,2013-04-17 08:20:00,
2013-04-17 04:25:00,44.6,38.5,30.30,SE,125,7.0,10.0,79,0.00,,,0.00,Wunderground v.1.15,2013-04-17 08:25:00,
2013-04-17 04:30:00,44.6,38.5,30.29,ESE,120,7.0,10.0,79,0.00,,,0.00,Wunderground v.1.15,2013-04-17 08:30:00,
2013-04-17 04:40:00,44.7,38.6,30.29,ESE,117,7.0,7.0,79,0.00,,,0.00,Wunderground v.1.15,2013-04-17 08:40:00,
2013-04-17 04:45:00,44.7,38.6,30.29,ESE,105,8.0,8.0,79,0.00,,,0.00,Wunderground v.1.15,2013-04-17 08:45:00,
2013-04-17 04:50:00,44.6,38.5,30.29,SE,127,8.0,8.0,79,0.00,,,0.00,Wunderground v.1.15,2013-04-17 08:50:00,
2013-04-17 05:00:00,44.7,38.6,30.30,ESE,115,7.0,10.0,79,0.00,,,0.00,Wunderground v.1.15,2013-04-17 09:00:00,
2013-04-17 05:05:00,44.8,38.7,30.30,ESE,117,8.0,10.0,79,0.00,,,0.00,Wunderground v.1.15,2013-04-17 09:05:00,
2013-04-17 05:10:00,44.9,38.8,30.30,SE,124,7.0,10.0,79,0.00,,,0.00,Wunderground v.1.15,2013-04-17 09:10:00,
2013-04-17 05:15:00,44.9,38.8,30.30,ESE,108,7.0,10.0,79,0.00,,,0.00,Wunderground v.1.15,2013-04-17 09:15:00,
2013-04-17 05:25:00,45.0,38.6,30.30,SE,129,7.0,10.0,78,0.00,,,0.00,Wunderground v.1.15,2013-04-17 09:25:00,
2013-04-17 05:35:00,45.0,38.9,30.29,SE,133,7.0,10.0,79,0.00,,,0.00,Wunderground v.1.15,2013-04-17 09:35:00,
2013-04-17 05:40:00,45.0,39.2,30.29,SE,136,7.0,7.0,80,0.00,,,0.00,Wunderground v.1.15,2013-04-17 09:40:00,
2013-04-17 05:45:00,44.9,39.1,30.30,SE,127,7.0,10.0,80,0.00,,,0.00,Wunderground v.1.15,2013-04-17 09:45:00,
2013-04-17 05:50:00,44.9,39.1,30.30,SE,131,7.0,7.0,80,0.00,,,0.00,Wunderground v.1.15,2013-04-17 09:50:00,
2013-04-17 05:55:00,44.9,39.1,30.30,ESE,119,7.0,10.0,80,0.00,,,0.00,Wunderground v.1.15,2013-04-17 09:55:00,
2013-04-17 06:05:00,45.0,39.5,30.30,SE,125,6.0,10.0,81,0.00,,,0.00,Wunderground v.1.15,2013-04-17 10:05:00,
2013-04-17 06:10:00,45.0,39.5,30.30,ESE,122,6.0,10.0,81,0.00,,,0.00,Wunderground v.1.15,2013-04-17 10:10:00,
2013-04-17 06:15:00,45.0,39.5,30.30,SE,124,6.0,10.0,81,0.00,,,0.00,Wunderground v.1.15,2013-04-17 10:15:00,
2013-04-17 06:20:00,45.0,39.2,30.30,SE,143,7.0,7.0,80,0.00,,,0.00,Wunderground v.1.15,2013-04-17 10:20:00,
2013-04-17 06:30:00,45.1,39.6,30.31,ESE,105,6.0,6.0,81,0.00,,,0.00,Wunderground v.1.15,2013-04-17 10:30:00,
2013-04-17 06:40:00,45.2,39.7,30.29,SE,128,6.0,10.0,81,0.00,,,0.00,Wunderground v.1.15,2013-04-17 10:40:00,
2013-04-17 06:45:00,45.2,39.7,30.29,ESE,117,7.0,10.0,81,0.00,,,0.00,Wunderground v.1.15,2013-04-17 10:45:00,
2013-04-17 06:50:00,45.2,39.7,30.29,SE,130,7.0,7.0,81,0.00,,,0.00,Wunderground v.1.15,2013-04-17 10:50:00,
2013-04-17 06:55:00,45.2,39.7,30.29,SE,124,7.0,10.0,81,0.00,,,0.00,Wunderground v.1.15,2013-04-17 10:55:00,
2013-04-17 07:00:00,45.2,39.7,30.29,SE,136,7.0,7.0,81,0.00,,,0.00,Wunderground v.1.15,2013-04-17 11:00:00,
2013-04-17 07:10:00,45.2,40.0,30.29,SE,128,5.0,5.0,82,0.00,,,0.00,Wunderground v.1.15,2013-04-17 11:10:00,
2013-04-17 07:15:00,45.4,39.9,30.29,SE,124,5.0,5.0,81,0.00,,,0.00,Wunderground v.1.15,2013-04-17 11:15:00,
2013-04-17 07:25:00,45.6,40.1,30.29,SE,139,6.0,7.0,81,0.00,,,0.00,Wunderground v.1.15,2013-04-17 11:25:00,
2013-04-17 07:30:00,45.7,40.2,30.29,SE,131,5.0,7.0,81,0.00,,,0.00,Wunderground v.1.15,2013-04-17 11:30:00,
2013-04-17 07:35:00,45.9,40.4,30.29,ESE,120,6.0,10.0,81,0.00,,,0.00,Wunderground v.1.15,2013-04-17 11:35:00,
2013-04-17 07:40:00,46.2,40.7,30.29,SE,134,6.0,6.0,81,0.00,,,0.00,Wunderground v.1.15,2013-04-17 11:40:00,
2013-04-17 07:45:00,46.3,40.8,30.29,ESE,117,6.0,8.0,81,0.00,,,0.00,Wunderground v.1.15,2013-04-17 11:45:00,
2013-04-17 07:50:00,46.4,40.6,30.29,SE,130,6.0,10.0,80,0.00,,,0.00,Wunderground v.1.15,2013-04-17 11:50:00,
2013-04-17 07:55:00,46.4,40.6,30.28,SE,137,6.0,10.0,80,0.00,,,0.00,Wunderground v.1.15,2013-04-17 11:55:00,
2013-04-17 08:00:00,46.6,40.8,30.29,SE,143,6.0,10.0,80,0.00,,,0.00,Wunderground v.1.15,2013-04-17 12:00:00,
2013-04-17 08:05:00,46.8,40.6,30.29,SE,139,7.0,10.0,79,0.00,,,0.00,Wunderground v.1.15,2013-04-17 12:05:00,
2013-04-17 08:10:00,47.0,40.8,30.29,SE,134,7.0,10.0,79,0.00,,,0.00,Wunderground v.1.15,2013-04-17 12:10:00,
2013-04-17 08:20:00,47.5,40.6,30.28,SSE,159,9.0,11.0,77,0.00,,,0.00,Wunderground v.1.15,2013-04-17 12:20:00,
2013-04-17 08:30:00,47.9,40.7,30.27,SE,144,10.0,10.0,76,0.00,,,0.00,Wunderground v.1.15,2013-04-17 12:30:00,
2013-04-17 08:35:00,48.2,41.3,30.27,SSE,147,9.0,10.0,77,0.00,,,0.00,Wunderground v.1.15,2013-04-17 12:35:00,
2013-04-17 08:40:00,48.6,41.4,30.27,South,172,8.0,8.0,76,0.00,,,0.00,Wunderground v.1.15,2013-04-17 12:40:00,
2013-04-17 08:45:00,48.9,41.0,30.27,SE,139,8.0,10.0,74,0.00,,,0.00,Wunderground v.1.15,2013-04-17 12:45:00,
2013-04-17 08:55:00,49.2,41.6,30.26,South,181,8.0,10.0,75,0.00,,,0.00,Wunderground v.1.15,2013-04-17 12:55:00,
2013-04-17 09:00:00,49.4,41.8,30.26,SSE,153,9.0,9.0,75,0.00,,,0.00,Wunderground v.1.15,2013-04-17 13:00:00,
2013-04-17 09:05:00,49.6,41.7,30.26,ESE,117,10.0,10.0,74,0.00,,,0.00,Wunderground v.1.15,2013-04-17 13:05:00,
2013-04-17 09:10:00,49.9,41.9,30.27,SE,136,9.0,9.0,74,0.00,,,0.00,Wunderground v.1.15,2013-04-17 13:10:00,
2013-04-17 09:15:00,50.1,41.8,30.27,SE,143,10.0,10.0,73,0.00,,,0.00,Wunderground v.1.15,2013-04-17 13:15:00,
2013-04-17 09:25:00,50.1,41.8,30.27,SSE,166,9.0,11.0,73,0.00,,,0.00,Wunderground v.1.15,2013-04-17 13:25:00,
2013-04-17 09:35:00,50.6,42.6,30.27,SSE,162,9.0,12.0,74,0.00,,,0.00,Wunderground v.1.15,2013-04-17 13:35:00,
2013-04-17 09:40:00,50.3,42.0,30.27,SSW,211,10.0,10.0,73,0.00,,,0.00,Wunderground v.1.15,2013-04-17 13:40:00,
2013-04-17 09:45:00,49.8,41.1,30.27,SE,129,10.0,12.0,72,0.00,,,0.00,Wunderground v.1.15,2013-04-17 13:45:00,
2013-04-17 09:50:00,49.7,41.7,30.28,South,172,10.0,10.0,74,0.00,,,0.00,Wunderground v.1.15,2013-04-17 13:50:00,
2013-04-17 09:55:00,49.8,41.5,30.28,SSW,193,10.0,10.0,73,0.00,,,0.00,Wunderground v.1.15,2013-04-17 13:55:00,
2013-04-17 10:00:00,49.5,41.6,30.27,SSE,153,11.0,13.0,74,0.00,,,0.00,Wunderground v.1.15,2013-04-17 14:00:00,
2013-04-17 10:10:00,49.8,42.2,30.26,SSE,153,11.0,11.0,75,0.00,,,0.00,Wunderground v.1.15,2013-04-17 14:10:00,
2013-04-17 10:15:00,50.1,42.5,30.27,ESE,121,11.0,16.0,75,0.00,,,0.00,Wunderground v.1.15,2013-04-17 14:15:00,
2013-04-17 10:20:00,50.1,43.2,30.26,South,191,11.0,11.0,77,0.00,,,0.00,Wunderground v.1.15,2013-04-17 14:20:00,
2013-04-17 10:30:00,51.1,43.4,30.26,SSW,207,7.0,9.0,75,0.00,,,0.00,Wunderground v.1.15,2013-04-17 14:30:00,
2013-04-17 10:40:00,51.7,43.0,30.25,SSE,159,9.0,16.0,72,0.00,,,0.00,Wunderground v.1.15,2013-04-17 14:40:00,
2013-04-17 10:45:00,51.5,43.1,30.25,SSE,149,10.0,16.0,73,0.00,,,0.00,Wunderground v.1.15,2013-04-17 14:45:00,
2013-04-17 10:50:00,51.4,43.4,30.26,SSE,152,9.0,16.0,74,0.00,,,0.00,Wunderground v.1.15,2013-04-17 14:50:00,
2013-04-17 10:55:00,51.1,43.8,30.26,South,169,10.0,16.0,76,0.00,,,0.00,Wunderground v.1.15,2013-04-17 14:55:00,
2013-04-17 11:00:00,51.3,44.0,30.26,SE,142,10.0,10.0,76,0.00,,,0.00,Wunderground v.1.15,2013-04-17 15:00:00,
2013-04-17 11:10:00,52.4,44.7,30.26,SW,214,8.0,16.0,75,0.00,,,0.00,Wunderground v.1.15,2013-04-17 15:10:00,
2013-04-17 11:15:00,52.0,44.0,30.26,SSW,203,9.0,16.0,74,0.00,,,0.00,Wunderground v.1.15,2013-04-17 15:15:00,
2013-04-17 11:20:00,52.0,44.7,30.27,SSW,205,9.0,16.0,76,0.00,,,0.00,Wunderground v.1.15,2013-04-17 15:20:00,
2013-04-17 11:25:00,51.8,44.1,30.26,SSE,167,8.0,16.0,75,0.00,,,0.00,Wunderground v.1.15,2013-04-17 15:25:00,
2013-04-17 11:35:00,51.8,44.5,30.26,SE,139,8.0,9.0,76,0.00,,,0.00,Wunderground v.1.15,2013-04-17 15:35:00,
2013-04-17 11:45:00,52.2,45.2,30.25,SSW,200,8.0,16.0,77,0.00,,,0.00,Wunderground v.1.15,2013-04-17 15:45:00,
2013-04-17 11:50:00,52.5,45.5,30.25,SSE,159,8.0,16.0,77,0.00,,,0.00,Wunderground v.1.15,2013-04-17 15:50:00,
2013-04-17 11:55:00,52.4,45.1,30.25,SE,129,9.0,16.0,76,0.00,,,0.00,Wunderground v.1.15,2013-04-17 15:55:00,
2013-04-17 12:00:00,52.1,45.1,30.26,SE,146,9.0,9.0,77,0.00,,,0.00,Wunderground v.1.15,2013-04-17 16:00:00,
2013-04-17 12:10:00,52.0,44.7,30.26,South,191,8.0,8.0,76,0.00,,,0.00,Wunderground v.1.15,2013-04-17 16:10:00,
2013-04-17 12:20:00,51.9,45.3,30.25,SSE,158,7.0,8.0,78,0.00,,,0.00,Wunderground v.1.15,2013-04-17 16:20:00,
2013-04-17 12:25:00,51.9,44.9,30.25,SE,141,8.0,8.0,77,0.00,,,0.00,Wunderground v.1.15,2013-04-17 16:25:00,
2013-04-17 12:35:00,52.0,45.4,30.24,SSE,156,7.0,21.0,78,0.00,,,0.00,Wunderground v.1.15,2013-04-17 16:35:00,
2013-04-17 12:40:00,52.0,45.4,30.24,SE,139,7.0,7.0,78,0.00,,,0.00,Wunderground v.1.15,2013-04-17 16:40:00,
2013-04-17 12:45:00,52.1,45.4,30.23,ESE,120,8.0,8.0,78,0.00,,,0.00,Wunderground v.1.15,2013-04-17 16:45:00,
2013-04-17 12:55:00,52.4,45.7,30.21,SE,146,8.0,21.0,78,0.00,,,0.00,Wunderground v.1.15,2013-04-17 16:55:00,
2013-04-17 13:00:00,52.5,45.8,30.21,SSE,155,9.0,9.0,78,0.00,,,0.00,Wunderground v.1.15,2013-04-17 17:00:00,
2013-04-17 13:05:00,52.6,45.9,30.20,South,191,8.0,10.0,78,0.00,,,0.00,Wunderground v.1.15,2013-04-17 17:05:00,
2013-04-17 13:10:00,52.7,46.0,30.21,South,172,8.0,21.0,78,0.00,,,0.00,Wunderground v.1.15,2013-04-17 17:10:00,
2013-04-17 13:15:00,52.8,46.1,30.20,SSE,157,8.0,21.0,78,0.00,,,0.00,Wunderground v.1.15,2013-04-17 17:15:00,
2013-04-17 13:25:00,52.8,46.1,30.20,SSE,167,8.0,21.0,78,0.00,,,0.00,Wunderground v.1.15,2013-04-17 17:25:00,
2013-04-17 13:30:00,52.8,46.5,30.20,South,186,8.0,8.0,79,0.00,,,0.00,Wunderground v.1.15,2013-04-17 17:30:00,
2013-04-17 13:40:00,52.8,46.5,30.20,SE,139,7.0,21.0,79,0.00,,,0.00,Wunderground v.1.15,2013-04-17 17:40:00,
2013-04-17 13:45:00,52.8,46.5,30.19,South,175,8.0,21.0,79,0.00,,,0.00,Wunderground v.1.15,2013-04-17 17:45:00,
2013-04-17 13:50:00,52.8,46.5,30.19,SSE,166,8.0,21.0,79,0.00,,,0.00,Wunderground v.1.15,2013-04-17 17:50:00,
2013-04-17 14:00:00,52.8,46.1,30.19,SSW,210,8.0,8.0,78,0.00,,,0.00,Wunderground v.1.15,2013-04-17 18:00:00,
2013-04-17 14:10:00,52.9,45.9,30.19,South,177,10.0,13.0,77,0.00,,,0.00,Wunderground v.1.15,2013-04-17 18:10:00,
2013-04-17 14:15:00,53.0,46.0,30.18,South,179,10.0,13.0,77,0.00,,,0.00,Wunderground v.1.15,2013-04-17 18:15:00,
2013-04-17 14:20:00,53.1,45.4,30.18,SE,139,11.0,13.0,75,0.00,,,0.00,Wunderground v.1.15,2013-04-17 18:20:00,
2013-04-17 14:30:00,53.4,46.0,30.17,SSE,168,10.0,13.0,76,0.00,,,0.00,Wunderground v.1.15,2013-04-17 18:30:00,
2013-04-17 14:40:00,53.5,45.1,30.17,SW,218,10.0,10.0,73,0.00,,,0.00,Wunderground v.1.15,2013-04-17 18:40:00,
2013-04-17 14:45:00,53.5,45.4,30.17,South,178,9.0,15.0,74,0.00,,,0.00,Wunderground v.1.15,2013-04-17 18:45:00,
2013-04-17 14:50:00,53.2,46.2,30.16,SSW,198,7.0,7.0,77,0.00,,,0.00,Wunderground v.1.15,2013-04-17 18:50:00,
2013-04-17 14:55:00,52.8,45.8,30.15,South,184,7.0,15.0,77,0.00,,,0.00,Wunderground v.1.15,2013-04-17 18:55:00,
2013-04-17 15:00:00,52.7,46.0,30.15,SSW,197,7.0,15.0,78,0.00,,,0.00,Wunderground v.1.15,2013-04-17 19:00:00,
2013-04-17 15:10:00,53.0,45.6,30.14,SW,219,7.0,15.0,76,0.00,,,0.00,Wunderground v.1.15,2013-04-17 19:10:00,
2013-04-17 15:15:00,53.3,46.3,30.15,SE,132,8.0,15.0,77,0.00,,,0.00,Wunderground v.1.15,2013-04-17 19:15:00,
2013-04-17 15:20:00,53.4,46.0,30.14,SW,235,7.0,15.0,76,0.00,,,0.00,Wunderground v.1.15,2013-04-17 19:20:00,
2013-04-17 15:25:00,53.5,45.8,30.15,SSE,154,7.0,15.0,75,0.00,,,0.00,Wunderground v.1.15,2013-04-17 19:25:00,
2013-04-17 15:35:00,53.7,46.0,30.14,SE,146,9.0,15.0,75,0.00,,,0.00,Wunderground v.1.15,2013-04-17 19:35:00,
2013-04-17 15:45:00,53.8,46.1,30.13,SW,226,8.0,16.0,75,0.00,,,0.00,Wunderground v.1.15,2013-04-17 19:45:00,
2013-04-17 15:50:00,54.0,46.3,30.12,South,169,9.0,15.0,75,0.00,,,0.00,Wunderground v.1.15,2013-04-17 19:50:00,
2013-04-17 15:55:00,54.2,46.8,30.12,SSW,212,8.0,15.0,76,0.00,,,0.00,Wunderground v.1.15,2013-04-17 19:55:00,
2013-04-17 16:00:00,54.1,46.3,30.11,SSW,194,7.0,7.0,75,0.00,,,0.00,Wunderground v.1.15,2013-04-17 20:00:00,
2013-04-17 16:10:00,54.0,46.3,30.11,SSE,153,8.0,10.0,75,0.00,,,0.00,Wunderground v.1.15,2013-04-17 20:10:00,
2013-04-17 16:15:00,53.9,46.2,30.11,SSW,198,9.0,12.0,75,0.00,,,0.00,Wunderground v.1.15,2013-04-17 20:15:00,
2013-04-17 16:20:00,53.9,46.5,30.11,SSW,203,8.0,8.0,76,0.00,,,0.00,Wunderground v.1.15,2013-04-17 20:20:00,
2013-04-17 16:25:00,53.9,46.5,30.11,South,170,7.0,8.0,76,0.00,,,0.00,Wunderground v.1.15,2013-04-17 20:25:00,
2013-04-17 16:35:00,53.9,46.5,30.10,SSW,195,7.0,11.0,76,0.00,,,0.00,Wunderground v.1.15,2013-04-17 20:35:00,
2013-04-17 16:40:00,53.8,46.4,30.09,SSE,162,8.0,8.0,76,0.00,,,0.00,Wunderground v.1.15,2013-04-17 20:40:00,
2013-04-17 16:50:00,53.9,46.5,30.08,SW,220,8.0,16.0,76,0.00,,,0.00,Wunderground v.1.15,2013-04-17 20:50:00,
2013-04-17 16:55:00,53.9,46.9,30.08,SSW,193,8.0,16.0,77,0.00,,,0.00,Wunderground v.1.15,2013-04-17 20:55:00,
2013-04-17 17:00:00,54.0,47.0,30.07,South,177,7.0,7.0,77,0.00,,,0.00,Wunderground v.1.15,2013-04-17 21:00:00,
2013-04-17 17:05:00,54.1,47.0,30.07,SSE,159,6.0,16.0,77,0.00,,,0.00,Wunderground v.1.15,2013-04-17 21:05:00,
2013-04-17 17:10:00,54.2,47.1,30.07,SSE,168,6.0,16.0,77,0.00,,,0.00,Wunderground v.1.15,2013-04-17 21:10:00,
2013-04-17 17:15:00,54.1,47.0,30.07,SSW,201,7.0,16.0,77,0.00,,,0.00,Wunderground v.1.15,2013-04-17 21:15:00,
2013-04-17 17:20:00,54.1,47.4,30.06,SSE,153,8.0,8.0,78,0.00,,,0.00,Wunderground v.1.15,2013-04-17 21:20:00,
2013-04-17 17:25:00,54.1,47.0,30.06,ESE,119,7.0,16.0,77,0.00,,,0.00,Wunderground v.1.15,2013-04-17 21:25:00,
2013-04-17 17:30:00,54.0,47.0,30.06,SSW,193,6.0,16.0,77,0.00,,,0.00,Wunderground v.1.15,2013-04-17 21:30:00,
2013-04-17 17:40:00,54.0,47.3,30.07,SSW,200,6.0,16.0,78,0.00,,,0.00,Wunderground v.1.15,2013-04-17 21:40:00,
2013-04-17 17:45:00,54.0,47.3,30.08,SSE,163,5.0,16.0,78,0.00,,,0.00,Wunderground v.1.15,2013-04-17 21:45:00,
2013-04-17 17:50:00,53.9,47.2,30.08,SW,214,5.0,16.0,78,0.00,,,0.00,Wunderground v.1.15,2013-04-17 21:50:00,
2013-04-17 17:55:00,53.8,47.4,30.08,SSE,147,5.0,16.0,79,0.00,,,0.00,Wunderground v.1.15,2013-04-17 21:55:00,
2013-04-17 18:00:00,53.8,47.4,30.07,SSE,156,5.0,5.0,79,0.00,,,0.00,Wunderground v.1.15,2013-04-17 22:00:00,
2013-04-17 18:10:00,53.7,47.3,30.07,SSW,198,6.0,6.0,79,0.00,,,0.00,Wunderground v.1.15,2013-04-17 22:10:00,
2013-04-17 18:15:00,53.8,47.4,30.06,SSE,158,7.0,10.0,79,0.00,,,0.00,Wunderground v.1.15,2013-04-17 22:15:00,
2013-04-17 18:20:00,53.9,47.9,30.06,SSE,149,8.0,8.0,80,0.00,,,0.00,Wunderground v.1.15,2013-04-17 22:20:00,
2013-04-17 18:25:00,53.9,47.9,30.05,SE,146,9.0,11.0,80,0.00,,,0.00,Wunderground v.1.15,2013-04-17 22:25:00,
2013-04-17 18:30:00,54.0,48.0,30.04,ESE,104,8.0,8.0,80,0.00,,,0.00,Wunderground v.1.15,2013-04-17 22:30:00,
2013-04-17 18:40:00,53.9,47.5,30.05,South,186,7.0,16.0,79,0.00,,,0.00,Wunderground v.1.15,2013-04-17 22:40:00,
2013-04-17 18:45:00,53.9,47.5,30.05,SSE,157,7.0,16.0,79,0.00,,,0.00,Wunderground v.1.15,2013-04-17 22:45:00,
2013-04-17 18:50:00,53.7,47.7,30.05,South,186,7.0,16.0,80,0.00,,,0.00,Wunderground v.1.15,2013-04-17 22:50:00,
2013-04-17 18:55:00,53.6,47.6,30.05,SSE,147,7.0,16.0,80,0.00,,,0.00,Wunderground v.1.15,2013-04-17 22:55:00,
2013-04-17 19:00:00,53.6,47.6,30.04,SSW,201,8.0,16.0,80,0.00,,,0.00,Wunderground v.1.15,2013-04-17 23:00:00,
2013-04-17 19:05:00,53.6,47.6,30.03,SSE,147,8.0,16.0,80,0.00,,,0.00,Wunderground v.1.15,2013-04-17 23:05:00,
2013-04-17 19:10:00,53.5,47.8,30.03,SSW,204,7.0,16.0,81,0.00,,,0.00,Wunderground v.1.15,2013-04-17 23:10:00,
2013-04-17 19:15:00,53.2,47.8,30.03,South,177,6.0,16.0,82,0.00,,,0.01,Wunderground v.1.15,2013-04-17 23:15:00,
2013-04-17 19:20:00,53.2,47.8,30.03,SE,138,6.0,16.0,82,0.00,,,0.01,Wunderground v.1.15,2013-04-17 23:20:00,
2013-04-17 19:25:00,53.1,47.7,30.03,SSE,148,7.0,16.0,82,0.00,,,0.01,Wunderground v.1.15,2013-04-17 23:25:00,
2013-04-17 19:30:00,53.0,48.0,30.03,South,186,6.0,16.0,83,0.00,,,0.01,Wunderground v.1.15,2013-04-17 23:30:00,
2013-04-17 19:40:00,52.9,47.9,30.02,SSE,150,6.0,6.0,83,0.00,,,0.01,Wunderground v.1.15,2013-04-17 23:40:00,
2013-04-17 19:50:00,53.1,48.4,30.02,SE,124,5.0,5.0,84,0.00,,,0.01,Wunderground v.1.15,2013-04-17 23:50:00,
2013-04-17 19:55:00,53.1,48.4,30.07,East,99,5.0,6.0,84,0.00,,,0.01,Wunderground v.1.15,2013-04-17 23:55:00,
2013-04-17 20:00:00,51.8,46.2,30.06,East,101,11.0,23.0,81,0.18,,,0.03,Wunderground v.1.15,2013-04-18 00:00:00,
2013-04-17 20:10:00,50.8,46.1,30.01,ESE,110,16.0,16.0,84,0.05,,,0.03,Wunderground v.1.15,2013-04-18 00:10:00,
2013-04-17 20:15:00,50.5,45.8,30.03,ESE,115,16.0,16.0,84,0.00,,,0.03,Wunderground v.1.15,2013-04-18 00:15:00,
2013-04-17 20:20:00,50.3,46.0,30.09,NNW,327,15.0,15.0,85,0.00,,,0.03,Wunderground v.1.15,2013-04-18 00:20:00,
2013-04-17 20:25:00,50.1,45.8,30.08,East,97,12.0,29.0,85,0.00,,,0.03,Wunderground v.1.15,2013-04-18 00:25:00,
2013-04-17 20:30:00,49.6,45.6,30.07,East,96,17.0,22.0,86,0.00,,,0.03,Wunderground v.1.15,2013-04-18 00:30:00,
2013-04-17 20:40:00,47.5,45.0,30.08,East,79,26.0,26.0,91,0.13,,,0.08,Wunderground v.1.15,2013-04-18 00:40:00,
2013-04-17 20:50:00,47.4,46.0,30.07,SE,131,19.0,19.0,95,0.70,,,0.21,Wunderground v.1.15,2013-04-18 00:50:00,
2013-04-17 20:55:00,47.7,46.6,30.07,SE,134,13.0,19.0,96,0.79,,,0.30,Wunderground v.1.15,2013-04-18 00:55:00,
2013-04-17 21:00:00,47.8,46.7,30.08,SE,138,8.0,13.0,96,1.09,,,0.37,Wunderground v.1.15,2013-04-18 01:00:00,
2013-04-17 21:05:00,47.7,46.6,30.10,SE,146,8.0,13.0,96,1.38,,,0.50,Wunderground v.1.15,2013-04-18 01:05:00,
2013-04-17 21:10:00,47.5,46.4,30.12,East,84,9.0,16.0,96,0.69,,,0.59,Wunderground v.1.15,2013-04-18 01:10:00,
2013-04-17 21:20:00,46.8,45.7,30.09,ESE,110,11.0,11.0,96,0.18,,,0.70,Wunderground v.1.15,2013-04-18 01:20:00,
2013-04-17 21:25:00,46.7,45.9,30.08,SE,141,11.0,14.0,97,0.85,,,0.75,Wunderground v.1.15,2013-04-18 01:25:00,
2013-04-17 21:30:00,46.5,45.7,30.07,SSE,149,11.0,15.0,97,0.13,,,0.76,Wunderground v.1.15,2013-04-18 01:30:00,
2013-04-17 21:35:00,46.2,45.4,30.06,SE,129,11.0,15.0,97,0.10,,,0.77,Wunderground v.1.15,2013-04-18 01:35:00,
2013-04-17 21:45:00,45.6,44.8,30.05,SE,131,15.0,15.0,97,0.04,,,0.77,Wunderground v.1.15,2013-04-18 01:45:00,
2013-04-17 21:55:00,45.1,44.3,30.05,SSE,158,13.0,15.0,97,0.00,,,0.77,Wunderground v.1.15,2013-04-18 01:55:00,
2013-04-17 22:00:00,45.1,44.3,30.05,South,169,11.0,11.0,97,0.00,,,0.77,Wunderground v.1.15,2013-04-18 02:00:00,
2013-04-17 22:10:00,45.3,44.8,30.07,SE,131,7.0,7.0,98,0.00,,,0.77,Wunderground v.1.15,2013-04-18 02:10:00,
2013-04-17 22:15:00,45.6,45.1,30.06,SSE,147,6.0,9.0,98,0.21,,,0.79,Wunderground v.1.15,2013-04-18 02:15:00,
2013-04-17 22:20:00,45.7,45.2,30.05,SE,146,7.0,9.0,98,0.12,,,0.79,Wunderground v.1.15,2013-04-18 02:20:00,
2013-04-17 22:30:00,45.9,45.4,30.02,SSE,152,8.0,12.0,98,0.17,,,0.82,Wunderground v.1.15,2013-04-18 02:30:00,
2013-04-17 22:35:00,46.0,45.5,30.00,ESE,102,8.0,19.0,98,0.11,,,0.83,Wunderground v.1.15,2013-04-18 02:35:00,
2013-04-17 22:45:00,46.3,45.8,30.01,SSE,153,10.0,10.0,98,0.05,,,0.83,Wunderground v.1.15,2013-04-18 02:45:00,
2013-04-17 22:50:00,46.5,46.0,30.02,ESE,118,9.0,9.0,98,0.04,,,0.83,Wunderground v.1.15,2013-04-18 02:50:00,
2013-04-17 22:55:00,46.6,46.1,30.01,SE,136,8.0,19.0,98,0.00,,,0.83,Wunderground v.1.15,2013-04-18 02:55:00,
2013-04-17 23:05:00,46.9,46.4,30.00,SSE,149,7.0,19.0,98,0.00,,,0.84,Wunderground v.1.15,2013-04-18 03:05:00,
2013-04-17 23:10:00,47.1,46.6,30.00,SE,136,8.0,19.0,98,0.00,,,0.84,Wunderground v.1.15,2013-04-18 03:10:00,
2013-04-17 23:15:00,47.0,46.2,29.99,SE,142,10.0,19.0,97,0.00,,,0.84,Wunderground v.1.15,2013-04-18 03:15:00,
2013-04-17 23:20:00,46.9,46.1,30.00,SSE,147,10.0,10.0,97,0.00,,,0.84,Wunderground v.1.15,2013-04-18 03:20:00,
2013-04-17 23:25:00,46.7,45.6,30.00,SSW,200,10.0,14.0,96,0.00,,,0.84,Wunderground v.1.15,2013-04-18 03:25:00,
2013-04-17 23:35:00,45.9,44.8,30.00,SSE,160,9.0,19.0,96,0.00,,,0.84,Wunderground v.1.15,2013-04-18 03:35:00,
2013-04-17 23:40:00,45.5,44.4,29.99,SSW,209,8.0,8.0,96,0.00,,,0.84,Wunderground v.1.15,2013-04-18 03:40:00,
2013-04-17 23:50:00,45.1,44.0,29.97,SW,225,9.0,19.0,96,0.00,,,0.84,Wunderground v.1.15,2013-04-18 03:50:00,
2013-04-17 23:55:00,45.0,43.9,29.97,SSE,162,10.0,19.0,96,0.00,,,0.84,Wunderground v.1.15,2013-04-18 03:55:00,